Dewpoint
42 42 42 42 43 42 42 44 44 44 44 45 45 45 46 47 48 45 42 44 41 37 36 37 36 33 33 32 29 29 29 29 30 27 26 25 26 27 29 28 28 28 32 31 30 29 28 30 26 24 30 30 32 35
44 44 44 42 42 42 42 43 44 44 45 45 45 46 46 46 47 46 42 43 45 39 37 37 37 37 35 33 33 33 30 30 33 28 29 32 28 31 29 24 28 29 33 30 32 31 32 33 30 31 34 30 29 32
44 44 44 44 43 43 43 43 44 44 45 46 45 46 46 46 47 46 41 41 44 39 36 37 35 37 37 37 35 32 32 33 32 33 32 31 27 29 23 23 28 27 25 31 31 28 30 28 28 27 31 28 26 26
43 44 44 44 44 44 43 43 43 44 44 45 45 46 46 47 47 47 41 42 42 40 33 31 35 36 36 36 36 36 34 34 35 35 33 32 30 34 28 27 29 30 29 27 30 31 28 25 24 23 24 28 27 26
43 43 43 43 43 43 43 43 43 43 43 44 45 46 47 47 47 45 44 43 43 39 32 32 34 35 36 34 36 36 36 35 35 32 32 30 33 31 30 29 28 27 27 26 24 23 22 23 25 27 27 29 28 27
43 43 43 43 43 43 43 44 43 43 44 44 45 45 46 45 44 42 35 41 44 43 36 30 32 32 32 36 35 35 36 36 36 32 31 34 34 34 29 26 26 26 26 27 26 27 27 28 28 29 29 29 29 28
43 44 43 43 43 44 45 44 43 43 43 44 46 46 46 45 41 38 34 37 44 44 36 31 29 31 33 31 33 34 36 36 36 34 33 31 31 33 32 28 28 27 27 28 28 29 27 27 27 28 28 29 31 30
44 43 43 44 43 44 44 44 43 43 43 44 45 46 45 44 43 40 41 46 46 41 38 30 24 28 33 30 29 32 31 34 36 33 34 31 31 32 29 28 28 28 27 26 27 28 27 26 26 27 28 28 28 28
44 44 43 43 44 43 44 43 43 43 43 45 45 43 41 38 36 37 43 45 45 38 31 28 26 23 32 31 33 32 34 30 35 31 29 31 28 26 25 24 23 23 23 23 24 25 26 26 26 26 27 28 28 29
44 44 43 44 45 43 44 43 43 44 45 44 40 35 31 34 41 42 40 36 36 34 34 30 30 26 30 29 26 30 34 30 26 29 30 30 26 25 25 25 24 24 24 23 22 21 22 24 25 25 26 28 29 29
45 45 45 45 45 45 44 44 44 44 43 39 33 31 34 40 37 33 31 30 31 28 31 32 30 27 29 25 23 29 23 23 23 22 26 21 22 23 25 26 26 27 26 26 26 25 25 25 25 26 26 26 26 27
45 45 46 46 45 44 45 44 44 41 40 38 36 38 38 35 32 29 26 24 27 23 23 28 28 29 28 30 26 24 22 23 20 25 25 21 19 19 20 24 29 30 32 32 34 32 30 28 29 33 32 28 27 28
45 45 45 45 44 44 44 44 43 43 42 40 34 32 30 31 25 21 11 16 22 25 28 28 26 29 28 29 29 26 24 22 26 23 22 24 24 28 32 32 32 34 35 36 35 35 35 35 37 38 36 36 33 30
44 45 45 45 45 45 44 44 44 42 39 31 30 25 24 16 22 16 19 21 25 28 29 30 27 29 30 30 25 18 28 26 23 21 21 21 32 33 33 33 33 32 32 33 32 31 31 31 32 32 35 37 36 35
43 44 44 44 45 44 44 43 43 41 36 31 28 16 21 22 20 23 24 23 27 31 32 28 28 27 26 26 22 24 23 23 23 23 27 32 32 32 31 30 29 30 30 29 30 30 31 32 33 33 34 35 35 35
43 43 42 44 44 44 43 42 41 38 33 32 29 23 18 20 21 20 25 24 29 31 30 27 22 24 24 26 23 22 15 20 24 29 31 32 32 31 29 29 31 32 32 30 30 29 33 34 33 34 33 32 33 33
43 38 44 44 44 43 42 38 36 33 32 29 26 24 22 20 23 25 27 27 32 27 18 20 14 16 15 20 21 23 22 24 30 31 34 32 31 30 30 30 30 31 31 30 31 30 30 32 34 33 31 33 33 33
38 39 44 44 42 40 35 34 33 32 29 28 27 22 21 23 23 25 29 31 30 25 23 18 20 13 13 11 18 22 26 31 32 33 33 31 31 30 30 29 29 29 29 28 30 29 29 29 30 30 31 31 32 32
39 40 43 43 39 36 33 33 33 27 27 20 22 20 21 23 26 28 29 30 32 30 28 30 25 23 22 24 27 29 29 30 31 32 32 31 31 30 30 29 27 27 26 26 29 27 28 28 29 30 30 30 28 29
43 43 42 42 39 34 32 32 33 29 25 27 22 23 25 27 30 31 30 30 32 32 30 29 26 22 22 25 28 29 32 33 32 31 29 29 29 29 28 28 27 26 25 25 25 28 25 25 27 28 29 28 26 27
41 40 43 37 33 33 30 30 29 30 26 29 26 30 30 32 30 30 30 33 31 30 26 24 25 27 30 30 31 34 33 34 31 31 29 27 28 27 26 25 25 24 24 24 23 24 26 25 26 27 27 28 27 27
35 41 34 35 32 31 29 30 24 26 30 31 30 30 29 29 29 30 30 26 25 25 26 25 26 26 26 31 32 33 32 30 29 29 28 27 24 24 23 24 23 22 22 22 23 23 24 25 25 24 25 25 26 26
39 37 33 32 26 27 27 31 28 29 25 26 29 27 28 28 28 31 24 25 25 26 25 25 26 28 30 30 30 30 30 29 26 26 25 24 23 22 22 21 22 21 20 20 20 20 20 22 21 21 21 21 21 22
34 31 30 26 20 22 26 24 26 22 25 23 23 23 25 27 29 24 21 21 21 21 21 21 26 28 27 27 25 25 27 28 25 23 23 20 19 20 21 21 21 22 22 21 19 18 17 18 20 18 18 18 18 17
30 24 21 17 18 18 18 19 21 23 20 19 22 22 23 25 18 17 18 19 20 19 18 21 21 22 21 22 24 24 26 25 21 20 20 21 20 20 20 20 20 21 21 20 19 18 17 16 16 16 17 16 15 16
16 20 16 15 15 17 18 17 19 20 21 18 21 22 19 16 10 9 17 17 17 16 19 20 21 19 19 21 21 21 22 23 20 18 18 19 20 20 20 19 18 18 21 19 18 17 16 16 15 15 15 16 19 15
16 14 15 18 21 20 20 22 23 21 16 14 18 14 10 4 6 15 19 18 17 16 19 19 19 18 18 21 23 24 24 20 18 18 19 19 19 19 19 20 20 21 21 18 17 16 15 15 15 15 15 16 16 16
11 13 16 18 19 19 18 15 12 12 15 19 14 6 6 8 11 17 18 19 20 20 20 21 23 22 22 22 23 23 23 22 19 19 19 19 19 19 18 17 18 22 19 20 18 16 15 15 16 16 15 15 15 16
12 15 16 12 10 10 13 14 13 17 18 16 11 9 10 17 19 19 22 21 21 19 18 18 20 21 22 23 23 24 24 24 21 19 18 16 16 17 18 17 16 15 15 16 21 20 18 17 16 15 16 16 15 15
12 10 8 5 4 6 11 16 15 15 14 14 15 16 17 16 18 23 20 18 18 17 18 19 19 20 20 20 19 20 22 23 23 21 17 16 17 18 17 16 16 15 15 15 15 15 17 15 15 14 13 13 13 13
9 11 6 6 6 11 14 16 16 15 10 10 13 12 13 13 17 20 20 17 18 21 20 19 21 22 21 20 20 19 19 22 21 20 20 18 17 17 16 16 16 15 15 15 14 14 13 13 13 13 13 12 12 13
10 9 10 3 9 14 19 16 13 14 14 11 9 10 13 11 8 14 17 18 17 16 20 20 19 19 22 22 21 21 22 19 21 20 18 17 17 17 16 16 15 15 14 13 13 13 13 13 12 12 12 12 12 12
7 12 13 11 8 10 14 12 8 6 8 6 7 9 10 12 8 14 19 20 19 18 19 20 20 21 19 18 19 20 20 19 21 23 23 21 20 18 15 13 15 15 13 13 13 12 12 12 12 12 12 12 12 12
Lifted_Index
13 13 13 13 13 13 13 12 12 12 11 11 11 11 11 11 11 11 12 12 12 13 14 14 14 14 14 14 13 13 14 14 13 12 12 12 12 12 12 12 11 10 8 7 7 6 7 8 9 10 10 10 9 9
12 12 12 12 12 12 12 12 12 11 11 11 11 10 10 10 10 10 11 11 11 12 13 14 13 13 12 11 11 12 12 12 10 9 9 9 10 11 12 12 11 10 9 7 7 7 8 8 9 10 11 10 10 9
11 11 11 11 11 11 11 11 11 10 10 10 9 9 8 7 7 7 8 8 8 9 10 11 11 9 9 8 7 8 8 7 6 5 5 6 7 8 9 10 10 10 9 7 8 8 9 9 9 10 11 12 11 10
10 10 10 10 10 10 10 9 9 8 8 7 6 6 5 4 3 3 4 4 4 5 6 7 7 6 5 4 4 4 4 3 3 2 2 3 3 4 5 6 7 7 7 6 7 8 9 9 10 10 11 12 12 11
9 9 8 8 7 7 6 6 6 6 5 5 4 3 2 1 1 1 2 2 2 2 2 3 3 3 3 2 2 2 2 1 1 1 1 1 1 1 2 3 3 4 5 4 5 6 8 9 9 9 10 11 12 12
7 6 6 5 4 4 3 3 3 3 3 3 2 1 0 0 0 1 1 1 1 1 1 1 2 2 2 1 1 1 1 1 1 1 1 1 1 0 0 1 2 3 4 3 3 4 5 6 7 7 8 8 10 10
4 4 3 3 2 2 2 2 2 2 2 1 1 0 0 0 1 1 1 1 0 0 0 1 1 1 1 1 1 1 1 1 0 0 0 1 0 0 0 1 2 3 3 2 2 2 3 4 5 6 6 7 7 7
3 2 2 1 1 1 1 1 1 0 0 -0 -0 0 0 0 1 1 1 0 0 0 0 1 1 1 1 1 1 1 0 0 0 0 0 0 0 0 1 1 2 2 2 2 2 2 2 3 4 5 6 6 6 6
1 1 1 1 1 0 0 0 -0 -0 -1 -0 0 1 1 1 1 1 0 0 0 0 1 1 1 1 1 1 0 0 0 0 0 0 0 0 1 1 1 1 2 2 2 2 2 2 2 2 3 4 5 5 5 5
1 1 0 0 0 0 -0 -0 -0 -1 -0 0 1 1 1 1 1 0 0 0 0 0 1 1 1 1 1 1 0 0 0 1 1 1 1 1 1 1 1 2 2 2 2 2 2 2 2 2 2 3 4 4 4 4
-0 -0 -0 -0 -0 -0 -0 -0 -0 -0 0 1 1 2 2 1 1 0 0 1 1 1 1 1 1 1 1 1 1 1 1 1 1 1 1 1 2 1 2 2 2 2 2 2 2 2 2 1 1 2 2 2 2 3
-1 -1 -1 -1 -1 -1 -1 -0 -0 0 1 1 1 1 1 1 1 1 1 1 1 1 1 1 1 1 1 1 1 1 1 1 2 2 2 2 1 1 1 1 2 1 1 1 1 1 1 1 1 1 1 1 1 2
-1 -1 -1 -1 -1 -1 -1 -0 0 0 1 1 1 1 1 1 1 1 1 1 1 0 0 0 0 0 0 0 0 0 1 1 1 2 1 1 1 1 1 1 1 1 1 1 2 2 1 1 1 2 2 1 1 1
-1 -1 -1 -1 -1 -1 -0 -0 0 0 1 1 1 1 1 1 1 1 1 0 0 0 0 0 0 0 0 0 0 0 0 1 1 1 1 1 1 1 2 2 2 2 2 2 3 3 3 2 3 3 3 2 2 2
-1 -0 -0 -0 -1 -1 -0 -0 0 0 1 1 1 1 1 1 1 1 1 0 0 0 0 0 0 0 0 0 0 0 0 0 0 1 1 1 2 2 3 3 4 4 4 4 5 5 5 5 5 4 4 3 3 2
-0 -0 -0 -0 -1 -0 -0 0 0 1 1 1 1 1 2 1 1 1 1 1 1 1 1 0 1 1 1 1 1 1 1 1 1 1 2 2 2 3 4 5 6 7 7 7 7 7 8 8 7 7 6 5 4 3
-0 -0 -0 -1 -0 -0 0 1 1 1 1 1 1 2 2 2 1 1 1 1 1 1 1 1 1 1 1 2 2 2 2 2 2 2 3 3 3 4 5 6 7 9 9 10 10 10 10 10 9 8 7 6 5 5
0 0 -0 -0 0 1 1 1 1 1 1 2 2 2 2 2 1 1 1 1 1 1 1 1 2 2 2 3 3 3 3 3 3 3 3 4 4 5 6 7 8 9 10 10 10 11 11 11 10 9 9 8 7 7
0 0 -0 0 1 1 2 2 2 2 2 2 2 2 2 2 1 1 1 1 1 1 2 2 2 2 3 3 3 3 3 3 3 4 4 5 5 6 7 7 8 9 9 9 10 10 11 11 11 11 10 10 9 9
0 0 0 1 1 1 2 2 2 2 2 2 2 2 2 2 1 1 1 1 2 2 2 2 3 3 3 4 4 4 4 4 4 4 4 5 5 6 7 7 8 8 8 9 9 10 10 10 10 11 11 10 10 10
0 0 1 1 1 1 2 2 2 2 2 2 2 2 2 2 2 2 2 2 3 3 3 3 4 4 5 5 5 5 5 5 5 5 5 5 5 6 6 7 7 7 8 8 8 9 9 10 10 10 10 10 10 10
1 1 1 1 1 1 1 1 1 2 2 2 2 2 2 2 3 3 3 3 4 4 5 5 5 6 6 6 6 6 6 6 5 5 5 5 6 6 7 7 7 7 8 8 8 9 9 10 10 10 10 10 10 10
1 1 1 1 1 1 1 2 2 2 2 2 2 3 3 3 3 4 4 4 5 6 6 6 6 6 7 7 6 6 6 6 5 5 5 6 6 7 8 8 8 8 8 9 9 9 10 10 11 11 10 10 10 10
1 1 1 1 1 1 2 2 2 2 2 2 3 3 3 4 4 4 4 4 5 6 6 6 6 6 6 6 5 5 5 5 5 5 6 7 7 8 8 9 9 9 9 9 9 10 10 10 11 11 11 11 11 11
1 1 1 1 1 2 2 2 2 2 2 3 3 3 3 4 3 3 3 4 4 5 5 5 5 5 4 4 4 5 5 5 5 5 7 8 8 8 8 8 9 9 10 10 10 10 11 11 11 11 11 12 12 12
1 1 1 1 2 2 2 2 2 2 3 3 3 3 3 3 3 3 3 4 4 5 5 5 5 5 4 5 5 5 6 6 6 6 7 8 8 8 8 8 8 10 11 12 11 11 11 12 12 12 12 12 12 13
2 2 2 2 2 2 2 2 3 3 3 3 3 3 3 3 3 3 4 5 5 6 6 6 6 6 6 6 6 6 7 7 7 7 8 9 9 9 9 9 9 11 12 12 12 12 12 12 12 12 12 12 12 13
2 2 2 2 2 3 3 3 3 3 3 3 3 3 3 3 4 4 5 6 6 7 6 7 7 7 7 7 7 7 7 7 7 7 7 8 9 10 11 11 11 12 12 12 12 12 12 12 12 12 12 12 12 12
3 3 3 3 3 3 3 3 3 3 3 3 3 3 4 4 5 6 6 7 7 6 6 6 7 7 7 7 7 7 7 7 7 6 6 6 8 10 11 12 12 12 12 12 12 12 12 12 12 12 12 12 12 12
4 5 4 4 3 3 4 4 4 4 5 4 4 4 4 5 6 8 8 7 7 6 6 6 7 7 7 7 7 7 7 7 7 7 7 7 9 10 11 12 12 12 12 12 12 12 12 12 12 12 11 11 11 11
6 5 4 4 3 4 5 5 5 5 5 5 5 4 4 5 6 7 8 7 7 6 6 6 6 7 7 7 7 7 7 8 8 9 9 10 10 11 11 11 12 12 12 12 12 11 11 11 11 11 10 10 10 10
6 5 4 4 4 5 5 5 5 5 4 4 4 4 4 4 5 6 7 7 7 6 6 6 7 7 7 8 8 8 9 10 10 10 11 11 11 11 11 11 11 11 11 11 11 11 10 10 10 10 9 9 9 9
5 5 5 4 4 5 5 5 4 4 4 4 4 4 4 4 4 5 7 7 7 6 6 7 7 8 8 8 9 10 10 11 11 11 11 11 11 11 11 11 11 11 11 11 11 10 10 10 9 9 9 9 9 9